www.pogodaiklimat.ru

Погода и климат >> Архив погоды >> Россия >> Владимирская область >> Суздаль


ПОГОДА в Суздале

  • Прогноз погоды в Суздале
  • Монитор погоды в Суздале

АРХИВ ПОГОДЫ в Суздале

Время (UTC), дата Ветер
(напр.,м/с)
 
Видим.   Явления Облачность Т
(С)
Тd
(С)
f
(%)
Тe
(С)
Тes
(С)
Комфортность P
(гПа)
Po
(гПа)
Тmin
(С)
Tmax
(С)
R
(мм)
R24
(мм)
S
(см)
00 14.08 Ю 1 н/о н/о +16.6 +14.7 89 +17 +17 1009.0 994.8
03 14.08 ЮЗ 2 н/о н/о +17.5 +16.0 91 +18 +18 1008.7 994.5 +16.6 0.2
06 14.08 З 2 н/о н/о +19.4 +14.8 75 +22 +22 комфорт 1009.8 995.7
09 14.08 З 2 н/о н/о +18.7 +14.7 78 +20 +20 1011.4 997.2
12 14.08 З 1 н/о н/о +18.7 +14.2 75 +21 +21 комфорт 1013.1 998.9
15 14.08 штиль 0 н/о н/о +19.5 +14.2 71 +21 +21 комфорт 1014.0 999.9 +19.6
18 14.08 Ю 1 н/о н/о +14.7 +13.5 93 +15 +15 1014.0 999.6
21 14.08 Ю 1 н/о н/о +12.6 +11.7 94 +13 +13 1014.0 999.5
00 15.08 штиль 0 н/о н/о +11.6 +10.8 95 +11 +11 1012.5 997.9
03 15.08 ЮВ 2 н/о н/о +13.2 +12.5 96 +12 +12 1011.2 996.8 +11.4 1
06 15.08 Ю 3 н/о н/о +18.5 +15.5 83 +19 +19 1008.5 994.3
09 15.08 штиль 0 н/о н/о +26.0 +18.4 63 +31 +31 очень
душно
1007.0 993.3
12 15.08 штиль 0 н/о н/о +27.4 +18.5 58 +32 +32 очень
душно
1008.1 994.4
15 15.08 СЗ 2 н/о н/о +19.6 +13.0 66 +22 +22 комфорт 1011.4 997.2 +28.1 0.4
18 15.08 штиль 0 н/о н/о +15.9 +13.2 84 +16 +16 1013.3 999.0
21 15.08 штиль 0 н/о н/о +14.0 +12.2 89 +14 +14 1014.6 1000.2
00 16.08 штиль 0 н/о н/о +13.4 +12.2 92 +13 +13 1014.9 1000.4
03 16.08 штиль 0 н/о н/о +13.4 +12.0 91 +13 +13 1015.3 1000.8 +13.1
06 16.08 штиль 0 н/о н/о +14.9 +12.5 86 +15 +15 1015.3 1000.9
09 16.08 СВ 2 н/о н/о +15.6 +13.4 87 +15 +15 1014.8 1000.4
12 16.08 СВ 2 н/о н/о +16.9 +12.5 75 +17 +17 1014.7 1000.4
15 16.08 СВ 2 н/о н/о +15.3 +12.2 82 +15 +15 1015.0 1000.6 +17.3 1
18 16.08 СВ 2 н/о н/о +14.1 +12.0 87 +14 +14 1015.5 1001.0
21 16.08 СВ 2 н/о н/о +13.5 +12.0 91 +13 +13 1015.3 1000.8
00 17.08 СВ 1 н/о н/о +12.8 +11.2 90 +13 +13 1015.4 1000.8
06 17.08 СВ 3 н/о н/о +15.5 +12.5 82 +15 +15 1015.2 1000.8
09 17.08 СВ 3 н/о н/о +16.4 +14.0 86 +16 +16 1014.9 1000.6
12 17.08 СВ 3 н/о н/о +16.5 +14.2 86 +16 +16 1015.0 1000.7
15 17.08 СВ 3 н/о н/о +15.9 +14.7 93 +15 +15 1014.3 999.9 +16.6 12
18 17.08 СВ 3 н/о н/о +15.8 +14.7 93 +15 +15 1013.1 998.8
21 17.08 СВ 5 н/о н/о +16.2 +15.4 95 +15 +15 1011.7 997.4
00 18.08 В 3 н/о н/о +16.7 +15.5 93 +16 +16 1011.3 997.1
03 18.08 В 3 н/о н/о +16.8 +15.5 92 +17 +17 1010.3 996.1 +15.8 25
06 18.08 В 4 н/о н/о +17.7 +16.0 90 +17 +17 1009.8 995.6
09 18.08 В 2 н/о н/о +20.5 +17.0 80 +24 +24 комфорт 1009.6 995.5
12 18.08 штиль 0 н/о н/о +23.9 +17.2 66 +28 +28 душно 1010.3 996.3
15 18.08 штиль 0 н/о н/о +22.6 +16.4 68 +27 +27 душно 1011.3 997.3 +24.5 0.7
18 18.08 штиль 0 н/о н/о +17.5 +15.7 89 +17 +17 1012.6 998.4
21 18.08 штиль 0 н/о н/о +15.9 +15.0 94 +16 +16 1013.0 998.6
00 19.08 штиль 0 н/о н/о +14.2 +13.5 96 +14 +14 1013.9 999.5
03 19.08 штиль 0 н/о н/о +12.5 +11.7 95 +12 +12 1014.1 999.5 +12.3 0.2
06 19.08 ЮЗ 1 н/о н/о +17.8 +15.5 86 +19 +19 1014.8 1000.5
09 19.08 Ю 2 н/о н/о +19.3 +14.8 75 +21 +21 комфорт 1015.7 1001.5
12 19.08 штиль 0 н/о н/о +20.4 +15.0 71 +23 +23 комфорт 1016.7 1002.5
15 19.08 штиль 0 н/о н/о +20.7 +15.2 71 +23 +23 комфорт 1017.7 1003.5 +20.8
18 19.08 штиль 0 н/о н/о +17.0 +15.0 88 +17 +17 1019.0 1004.6
21 19.08 штиль 0 н/о н/о +14.6 +13.5 93 +14 +14 1020.0 1005.5
00 20.08 штиль 0 н/о н/о +12.8 +12.0 95 +12 +12 1020.7 1006.1
03 20.08 штиль 0 н/о н/о +13.2 +12.5 96 +13 +13 1021.6 1007.0 +11.7
06 20.08 штиль 0 н/о н/о +20.5 +15.8 74 +23 +23 комфорт 1021.9 1007.7
12 20.08 штиль 0 н/о н/о +25.4 +16.2 57 +29 +29 душно 1021.1 1007.1

 

Местоположение метеостанции Суздаль (Владимирская область, Россия): широта 56.42 долгота 40.46 высота над уровнем моря 121 м.

В архиве по умолчанию представлена погода в Суздале за последнюю неделю. Архивные данные за месяц целиком и за предыдущие месяцы, начиная с января 2011 года, Вы можете получить, выбрав интересующий диапазон дат из раскрывающегося списка и нажав кнопку "Ввод!".


*Определитесь, кто Вы:
робот инопланетянин человек

Внимание! Время в таблицах - всемирное. Для получения местного времени необходимо прибавить поправку, которая равна 3 ч.

Смотрите также архив погоды в соседних городах и на ближайших метеорологических станциях:

Погода в Владимире (Владимирская область, Россия) (34 км)
Погода в Тейково (Ивановская область, Россия) (48 км)
Погода в Юрьев-Польском (Владимирская область, Россия) (48 км)
Погода в Коврове (Владимирская область, Россия) (55 км)
Погода в Иванове (Ивановская область, Россия) (67 км)
Погода в Шуе (Ивановская область, Россия) (75 км)
Погода в Петушках (Владимирская область, Россия) (82 км)
Погода в Гусь-Хрустальный (Владимирская область, Россия) (92 км)
Погода в Пешном (Атырауская область, Казахстан) (93 км)
Погода в Черустях (Московская область, Россия) (101 км)

Пояснения к столбцам:

Ветер - указаны скорость ветра в м/с - средняя за 10 мин, порывы в срок и между сроками (в фигурных скобках) и направление, откуда дует ветер: С - северный, СВ - северо-восточный, В - восточный, ЮВ - юго-восточный, Ю - южный, ЮЗ - юго-западный, З - западный, СЗ - северо-западный.
Видимость - горизонтальная дальность видимости в метрах или километрах. При видимости от 1 до 10 км при отсутствии осадков обычно наблюдается дымка, при ухудшении видимости до 1 км и менее - туман. В сухую погоду видимость может ухудшаться дымом, пылью или мглою.
Явления - указаны атмосферные явления, наблюдавшиеся в срок или в последний час перед сроком; фигурными скобками обозначены явления, наблюдавшиеся между сроками (за 1-3 часа до срока); квадратными скобками обозначены град или гололедные отложения с указанием их диаметра в мм.
Облачность - указаны через наклонную черту общая и нижняя облачность в баллах и высота нижней границы облаков в метрах; квадратными скобками обозначены формы облаков: Ci - перистые, Cs - перисто-слоистые, Cc - перисто-кучевые, Ac - высококучевые, As - высокослоистые, Sc - слоисто-кучевые, Ns - слоисто-дождевые, Cu - кучевые, Cb - кучево-дождевые. Подробнее классификацию облаков см. в Атласе облаков (PDF).
T - Температура воздуха - температура, измеренная на высоте 2 м над землей.
Td - Температура точки росы - температура, при понижении до которой содержащийся в воздухе водяной пар достигнет насыщения.
f - Относительная влажность воздуха - влажноcть воздуха, измеренная на высоте 2 м над землей.
Te - Эффективная температура - температура, которую ощущает одетый по сезону человек в тени. Характеристика душности погоды. При расчете учитывается влияние влажности воздуха и скорости ветра на теплоощущения человека.
Tes - Эффективная температура на солнце - температура, которую ощущает человек, с поправкой на солнечный нагрев. Характеристика знойности погоды. Зависит от высоты солнца над горизонтом, облачности и скорости ветра. Ночью, в пасмурную погоду, а также при ветре 12 м/с и более поправка равна нулю.
P - Атмосферное давление - приведенное к уровню моря атмосферное давление.
Po - Атмосферное давление - измеренное на уровне метеостанции атмосферное давление.
Tmin - Минимальная температура - минимум температуры воздуха на высоте 2 м над землей.
Tmax - Максимальная температура - максимум температуры воздуха на высоте 2 м над землей.
R - Количество осадков - Количество выпавших осадков за период времени, мм. При наведении курсора мыши на число - период времени, за который выпало указанное количество осадков.
R24 - Количество осадков - Количество выпавших осадков за 24 часа, мм.
S - Снежный покров - Высота снежного покрова, см. При наведении курсора мыши на число - состояние снежного покрова и степень покрытия местности в баллах.